[Date Prev][Date Next][Thread Prev][Thread Next] - [Date Index][Thread Index][Author Index]
2 Line ISS Keps 3-16
- Subject: [sarex] 2 Line ISS Keps 3-16
- From: "Dave Larsen PhD" <doc@xxxxxxxxxxx>
- Date: Wed, 15 Mar 2006 19:48:26 -0800
ISS
1 25544U 98067A 06075.00165791 .00010934 00000-0 78055-4 0 5371
2 25544 051.6449 306.9398 0008742 011.4094 128.1031 15.74365894418471
----
Via the sarex mailing list at AMSAT.ORG courtesy of AMSAT-NA.
To unsubscribe, send "unsubscribe sarex" to Majordomo@amsat.org
AMSAT Home